This demonstration page uses our WeatherBlox Daily Observations layout. Learn more.

Left ArrowRight Arrow

Hourly Observations for December 9, 2019

Temp ( °F °C ) Dew Point ( °F °C ) Humidity (%) Winds ( mph kmh ) Pressure ( in mb ) Visibility ( mi km ) Precip ( " mm )
12:51 am 00:51 Cloudy 53 11.7 51 10.6 93 93 NE 3 6 29.90 1012 10 16 0.01 0.25
1:51 am 01:51 Cloudy with Light Rain 52 11.1 50 10 93 93 NW 17 28 29.91 1013 8 13 0.04 1.02
2:51 am 02:51 Cloudy with Light Rain 51 10.6 49 9.4 92 92 N 5 7 29.89 1012 7 11 0.05 1.27
3:51 am 03:51 Cloudy with Light Rain 51 10.6 48 8.9 89 89 N 6 9 29.88 1012 10 16 0.06 1.52
4:51 am 04:51 Cloudy 50 10 48 8.9 93 93 ESE 7 11 29.87 1012 10 16 0.03 0.76
5:51 am 05:51 Cloudy with Light Rain 50 10 49 9.4 96 96 ENE 6 9 29.88 1012 10 16 0.01 0.25
6:51 am 06:51 Cloudy with Light Rain 50 10 47 8.3 89 89 E 9 15 29.88 1012 10 16 0.01 0.25
7:51 am 07:51 Cloudy with Light Rain 50 10 48 8.9 93 93 E 7 11 29.91 1013 10 16 0.03 0.76
8:51 am 08:51 Sunny 50 10 48 8.9 93 93 E 9 15 29.91 1013 10 16 0.01 0.25
9:51 am 09:51 Mostly Cloudy 53 11.7 48 8.9 83 83 E 10 17 29.91 1013 10 16 N/A
10:51 am 10:51 Cloudy 55 12.8 48 8.9 77 77 E 13 20 29.89 1012 10 16 N/A
11:51 am 11:51 Mostly Cloudy 57 13.9 46 7.8 67 67 ESE 12 19 29.86 1011 10 16 N/A
12:51 pm 12:51 Cloudy with Light Rain 54 12.2 47 8.3 77 77 ESE 8 13 29.84 1011 4 6 0.01 0.25
1:24 pm 13:24 Cloudy with Nearby Thunderstorms 52 11.1 48 8.9 86 86 WNW 25 41 29.89 1012 8 13 0.02 0.51
1:29 pm 13:29 Cloudy with Nearby Thunderstorms 47 8.3 44 6.7 90 90 WNW 32 52 29.92 1013 2 3 0.03 0.76
1:36 pm 13:36 Cloudy with Nearby Thunderstorms 46 7.8 44 6.7 93 93 WNW 29 46 29.94 1014 1 1 0.09 2.29
1:42 pm 13:42 Cloudy with Nearby Thunderstorms 46 7.8 45 7.2 96 96 NW 28 44 29.95 1014 1 2 0.14 3.56
1:51 pm 13:51 Cloudy with Nearby Thunderstorms 46 7.8 44 6.7 93 93 WNW 21 33 29.91 1013 2 2 0.20 5.08
2:04 pm 14:04 Cloudy with Nearby Thunderstorms 46 7.8 44 6.7 93 93 NW 17 28 29.97 1015 3 5 0.07 1.78
2:30 pm 14:30 Cloudy with Rain 47 8.3 45 7.2 93 93 WNW 20 31 29.98 1015 4 6 0.16 4.06
2:51 pm 14:51 Cloudy with Heavy Rain 46 7.8 44 6.7 93 93 WNW 14 22 29.94 1014 3 5 0.24 6.10
3:51 pm 15:51 Cloudy with Light Rain 46 7.8 44 6.7 93 93 SW 6 9 29.94 1014 5 8 0.14 3.56
4:51 pm 16:51 Mostly Cloudy 46 7.8 44 6.7 93 93 ESE 8 13 29.93 1014 10 16 0.02 0.51
5:51 pm 17:51 Clear 46 7.8 43 6.1 89 89 S 7 11 29.94 1014 10 16 N/A
6:51 pm 18:51 Clear 45 7.2 44 6.7 97 97 N N/A 29.96 1015 10 16 N/A
7:51 pm 19:51 Clear 46 7.8 43 6.1 89 89 N N/A 29.99 1016 10 16 N/A
8:51 pm 20:51 Mostly Clear 43 6.1 42 5.6 97 97 NNW 6 9 30.01 1016 10 16 N/A
9:51 pm 21:51 Clear 43 6.1 41 5 93 93 W 7 11 30.01 1016 10 16 N/A
10:51 pm 22:51 Clear 41 5 40 4.4 96 96 N 3 6 30.03 1017 10 16 N/A
11:51 pm 23:51 Cloudy 41 5 40 4.4 96 96 N 5 7 30.03 1017 10 16 N/A

Powered by AerisWeather